KAL282 CYYZ-CYHZ

Flight info

Callsign KAL282
Flight time N/A
Altitude 35000
Route DEDKI5 OLABA Q951 TALNO Q929 TOXAL DCT EBONY FUNDY5
Aircraft B77L/H-SDE1E2E3FGHIJ2J3J4J5M1RWXY/LB1D1

Departure

Time 2026-05-04 20:46
Airport Toronto Pearson International Airport (CYYZ)

Arrival

Time N/A
Airport Halifax / Stanfield International Airport (CYHZ)
Time Latitude Longitude Altitude Speed Heading
2026-05-04 19:56 43.67953 -79.63135 572 ft 0 kts 316°
2026-05-04 20:34 43.67935 -79.63114 576 ft 4 kts 323°
2026-05-04 20:34 43.67912 -79.63094 578 ft 4 kts 335°
2026-05-04 20:34 43.67888 -79.63083 577 ft 4 kts
2026-05-04 20:34 43.67868 -79.63090 572 ft 1 kts 46°
2026-05-04 20:37 43.67870 -79.63087 572 ft 2 kts 46°
2026-05-04 20:37 43.67887 -79.63062 579 ft 5 kts 46°
2026-05-04 20:38 43.67921 -79.63013 572 ft 9 kts 46°
2026-05-04 20:38 43.67970 -79.62962 576 ft 9 kts 11°
2026-05-04 20:38 43.68026 -79.63000 572 ft 9 kts 318°
2026-05-04 20:38 43.68075 -79.63063 574 ft 11 kts 317°
2026-05-04 20:39 43.68156 -79.63168 578 ft 20 kts 316°
2026-05-04 20:39 43.68257 -79.63303 576 ft 20 kts 316°
2026-05-04 20:39 43.68359 -79.63434 576 ft 21 kts 316°
2026-05-04 20:39 43.68462 -79.63571 575 ft 21 kts 316°
2026-05-04 20:40 43.68545 -79.63663 577 ft 9 kts 351°
2026-05-04 20:40 43.68608 -79.63614 579 ft 15 kts 46°
2026-05-04 20:40 43.68708 -79.63467 576 ft 23 kts 46°
2026-05-04 20:40 43.68811 -79.63316 576 ft 15 kts 47°
2026-05-04 20:41 43.68886 -79.63282 574 ft 13 kts 332°
2026-05-04 20:41 43.68950 -79.63363 573 ft 13 kts 317°
2026-05-04 20:41 43.69016 -79.63448 571 ft 14 kts 316°
2026-05-04 20:41 43.69080 -79.63525 578 ft 10 kts 334°
2026-05-04 20:42 43.69143 -79.63496 570 ft 11 kts 44°
2026-05-04 20:42 43.69222 -79.63426 574 ft 15 kts
2026-05-04 20:42 43.69309 -79.63420 567 ft 4 kts
2026-05-04 20:42 43.69310 -79.63420 567 ft 0 kts
2026-05-04 20:45 43.69338 -79.63422 573 ft 7 kts 352°
2026-05-04 20:45 43.69384 -79.63458 575 ft 9 kts 318°
2026-05-04 20:45 43.69397 -79.63536 572 ft 7 kts 227°
2026-05-04 20:45 43.69380 -79.63559 571 ft 19 kts 225°
2026-05-04 20:46 43.69120 -79.63935 578 ft 87 kts 226°
2026-05-04 20:46 43.68559 -79.64745 574 ft 143 kts 226°
2026-05-04 20:46 43.67830 -79.65824 829 ft 161 kts 225°
2026-05-04 20:46 43.67078 -79.66969 1469 ft 165 kts 229°
2026-05-04 20:47 43.66358 -79.68276 2200 ft 176 kts 233°
2026-05-04 20:47 43.65593 -79.69722 2931 ft 199 kts 232°
2026-05-04 20:47 43.64717 -79.71398 3733 ft 228 kts 236°
2026-05-04 20:47 43.63753 -79.73184 4900 ft 233 kts 226°
2026-05-04 20:48 43.62304 -79.74312 5858 ft 251 kts 199°
2026-05-04 20:48 43.60509 -79.74311 6705 ft 270 kts 172°
2026-05-04 20:48 43.58782 -79.73209 7439 ft 286 kts 150°
2026-05-04 20:48 43.57351 -79.71199 8121 ft 302 kts 130°
2026-05-04 20:49 43.56495 -79.68489 8770 ft 313 kts 105°
2026-05-04 20:49 43.56115 -79.65481 9356 ft 322 kts 102°
2026-05-04 20:49 43.55771 -79.62465 10084 ft 323 kts 102°
2026-05-04 20:49 43.55408 -79.59361 10635 ft 335 kts 102°
2026-05-04 20:50 43.55010 -79.56073 10864 ft 360 kts 103°
2026-05-04 20:50 43.54564 -79.52557 11073 ft 385 kts 103°
2026-05-04 20:50 43.54080 -79.48822 11517 ft 402 kts 103°
2026-05-04 20:50 43.53731 -79.44956 12186 ft 412 kts 94°
2026-05-04 20:51 43.53879 -79.40963 13054 ft 419 kts 83°
2026-05-04 20:51 43.54475 -79.37075 13969 ft 421 kts 73°
2026-05-04 20:51 43.55353 -79.33200 14754 ft 426 kts 72°
2026-05-04 20:51 43.56266 -79.29279 15488 ft 432 kts 71°
2026-05-04 20:52 43.57193 -79.25292 16229 ft 438 kts 71°
2026-05-04 20:52 43.58120 -79.21255 16996 ft 443 kts 71°
2026-05-04 20:52 43.59042 -79.17178 17744 ft 449 kts 71°
2026-05-04 20:52 43.59970 -79.13034 18384 ft 454 kts 71°
2026-05-04 20:53 43.60889 -79.08898 19029 ft 459 kts 71°
2026-05-04 20:53 43.61825 -79.04674 19659 ft 463 kts 71°
2026-05-04 20:53 43.62770 -79.00391 20300 ft 468 kts 71°
2026-05-04 20:53 43.63723 -78.96062 20931 ft 472 kts 71°
2026-05-04 20:54 43.64685 -78.91689 21538 ft 477 kts 71°
2026-05-04 20:54 43.65645 -78.87318 22168 ft 482 kts 70°
2026-05-04 20:54 43.66620 -78.82867 22782 ft 486 kts 70°
2026-05-04 20:54 43.67604 -78.78373 23374 ft 491 kts 70°
2026-05-04 20:55 43.68599 -78.73826 23884 ft 495 kts 70°
2026-05-04 20:55 43.69722 -78.69312 24414 ft 496 kts 64°
2026-05-04 20:55 43.71067 -78.64907 24984 ft 497 kts 63°
2026-05-04 20:55 43.72428 -78.60573 25536 ft 499 kts 63°
2026-05-04 20:56 43.73820 -78.56152 26062 ft 502 kts 63°
2026-05-04 20:56 43.75213 -78.51699 26556 ft 506 kts 63°
2026-05-04 20:56 43.76608 -78.47198 27045 ft 509 kts 63°
2026-05-04 20:56 43.78001 -78.42670 27536 ft 513 kts 63°
2026-05-04 20:57 43.79397 -78.38101 28026 ft 516 kts 63°
2026-05-04 20:57 43.80795 -78.33510 28487 ft 519 kts 63°
2026-05-04 20:57 43.82200 -78.28885 28936 ft 522 kts 63°
2026-05-04 20:57 43.83593 -78.24289 29369 ft 525 kts 63°
2026-05-04 20:58 43.85007 -78.19619 29905 ft 524 kts 63°
2026-05-04 20:58 43.86413 -78.14962 30464 ft 522 kts 63°
2026-05-04 20:58 43.87811 -78.10326 31046 ft 519 kts 63°
2026-05-04 20:58 43.89199 -78.05722 31581 ft 517 kts 63°
2026-05-04 20:59 43.90586 -78.01116 32054 ft 516 kts 63°
2026-05-04 20:59 43.91946 -77.96589 32506 ft 515 kts 62°
2026-05-04 20:59 43.93321 -77.92005 33073 ft 511 kts 62°
2026-05-04 20:59 43.94680 -77.87459 33658 ft 507 kts 62°
2026-05-04 21:00 43.96031 -77.82939 34058 ft 506 kts 62°
2026-05-04 21:00 43.97382 -77.78406 34325 ft 508 kts 62°
2026-05-04 21:00 43.98740 -77.73855 34575 ft 510 kts 62°
2026-05-04 21:00 44.00086 -77.69332 34670 ft 514 kts 63°
2026-05-04 21:01 44.02818 -77.60116 34698 ft 512 kts 63°
2026-05-04 21:01 44.05502 -77.51018 34718 ft 505 kts 62°
2026-05-04 21:02 44.08165 -77.41987 34708 ft 503 kts 62°
2026-05-04 21:02 44.11002 -77.33186 34721 ft 500 kts 59°
2026-05-04 21:03 44.13978 -77.24393 34712 ft 502 kts 59°
2026-05-04 21:03 44.16918 -77.15561 34731 ft 503 kts 59°
2026-05-04 21:04 44.19833 -77.06685 34743 ft 504 kts 60°
2026-05-04 21:04 44.22735 -76.97781 34761 ft 511 kts 60°
2026-05-04 21:05 44.25714 -76.88624 34757 ft 523 kts 60°
2026-05-04 21:05 44.28739 -76.79296 34750 ft 530 kts 60°
2026-05-04 21:06 44.31777 -76.69873 34760 ft 534 kts 60°
2026-05-04 21:06 44.34820 -76.60403 34752 ft 534 kts 60°
2026-05-04 21:07 44.37839 -76.50990 34754 ft 534 kts 60°
2026-05-04 21:07 44.40868 -76.41504 34740 ft 534 kts 60°
2026-05-04 21:08 44.43892 -76.32002 34746 ft 533 kts 60°
2026-05-04 21:08 44.46882 -76.22574 34746 ft 532 kts 60°
2026-05-04 21:09 44.49874 -76.13101 34735 ft 531 kts 60°
2026-05-04 21:09 44.52855 -76.03624 34736 ft 531 kts 60°
2026-05-04 21:10 44.55825 -75.94151 34735 ft 531 kts 60°
2026-05-04 21:10 44.58779 -75.84692 34714 ft 531 kts 60°
2026-05-04 21:11 44.61738 -75.75180 34707 ft 531 kts 60°
2026-05-04 21:11 44.64689 -75.65663 34698 ft 530 kts 60°
2026-05-04 21:12 44.67392 -75.56059 34712 ft 533 kts 64°
2026-05-04 21:12 44.70003 -75.46269 34707 ft 534 kts 63°
2026-05-04 21:13 44.72669 -75.36517 34695 ft 533 kts 63°
2026-05-04 21:13 44.75469 -75.26869 34700 ft 531 kts 61°
2026-05-04 21:14 44.78316 -75.17329 34709 ft 531 kts 61°
2026-05-04 21:14 44.81153 -75.07693 34724 ft 531 kts 62°
2026-05-04 21:15 44.83959 -74.98053 34722 ft 531 kts 62°
2026-05-04 21:15 44.86736 -74.88461 34705 ft 531 kts 62°
2026-05-04 21:16 44.89525 -74.78814 34705 ft 530 kts 62°
2026-05-04 21:16 44.92182 -74.69075 34706 ft 534 kts 66°
2026-05-04 21:17 44.94340 -74.59098 34706 ft 535 kts 68°
2026-05-04 21:17 44.96480 -74.49024 34716 ft 535 kts 67°
2026-05-04 21:18 44.98654 -74.38987 34708 ft 534 kts 67°
2026-05-04 21:18 45.00730 -74.28883 34698 ft 536 kts 69°
2026-05-04 21:19 45.02563 -74.18713 34706 ft 536 kts 70°
2026-05-04 21:19 45.04421 -74.08485 34708 ft 536 kts 70°
2026-05-04 21:20 45.05993 -73.99997 34722 ft 536 kts 70°
2026-05-04 21:20 45.07862 -73.87959 34708 ft 543 kts 78°
2026-05-04 21:21 45.08255 -73.79028 34727 ft 547 kts 83°
2026-05-04 21:21 45.08566 -73.68251 34739 ft 547 kts 83°
2026-05-04 21:22 45.08966 -73.57499 34725 ft 547 kts 82°
2026-05-04 21:22 45.09356 -73.46733 34732 ft 548 kts 83°
2026-05-04 21:23 45.09720 -73.35944 34735 ft 549 kts 83°
2026-05-04 21:23 45.10068 -73.25226 34752 ft 549 kts 83°
2026-05-04 21:24 45.10415 -73.14437 34746 ft 548 kts 83°
2026-05-04 21:24 45.10751 -73.03646 34763 ft 549 kts 83°
2026-05-04 21:25 45.11078 -72.92844 34751 ft 548 kts 83°
2026-05-04 21:25 45.11394 -72.82062 34765 ft 547 kts 83°
2026-05-04 21:26 45.11699 -72.71315 34753 ft 545 kts 83°
2026-05-04 21:26 45.11994 -72.60594 34760 ft 544 kts 83°
2026-05-04 21:27 45.12278 -72.49874 34771 ft 544 kts 83°
2026-05-04 21:27 45.12550 -72.39218 34772 ft 545 kts 83°
2026-05-04 21:28 45.12816 -72.28491 34767 ft 546 kts 83°
2026-05-04 21:28 45.13073 -72.17727 34771 ft 546 kts 83°
2026-05-04 21:29 45.13317 -72.07038 34770 ft 547 kts 84°
2026-05-04 21:29 45.13550 -71.96244 34788 ft 548 kts 84°
2026-05-04 21:30 45.13776 -71.85450 34780 ft 549 kts 84°
2026-05-04 21:30 45.13992 -71.74621 34787 ft 550 kts 84°
2026-05-04 21:31 45.14286 -71.58420 34792 ft 551 kts 85°
2026-05-04 21:32 45.14005 -71.47534 34792 ft 553 kts 89°
2026-05-04 21:32 45.13560 -71.36650 34802 ft 554 kts 90°
2026-05-04 21:33 45.13115 -71.25770 34799 ft 553 kts 89°
2026-05-04 21:33 45.12693 -71.14894 34807 ft 553 kts 90°
2026-05-04 21:34 45.12274 -71.04010 34802 ft 553 kts 90°
2026-05-04 21:34 45.11841 -70.93198 34796 ft 553 kts 90°
2026-05-04 21:35 45.11391 -70.82311 34803 ft 553 kts 90°
2026-05-04 21:35 45.10929 -70.71419 34795 ft 554 kts 90°
2026-05-04 21:36 45.10465 -70.60503 34785 ft 554 kts 90°
2026-05-04 21:36 45.09984 -70.49681 34801 ft 553 kts 90°
2026-05-04 21:37 45.09494 -70.38785 34789 ft 554 kts 90°